CPA489 RCTP-VHHH

Flight info

Callsign CPA489
Flight time 1h 26m
Altitude 38000
Route CHALI1A CHALI T3 MKG A1 ELATO V522 ABBEY
Aircraft A359/H-SDE2E3GHIJ3J4J5LM1ORWXY/LB1D1

Departure

Time 2026-05-04 14:02
Airport Taiwan Taoyuan International Airport (RCTP)

Arrival

Time 2026-05-04 15:28
Airport Hong Kong International Airport (VHHH)
Time Latitude Longitude Altitude Speed Heading
2026-05-04 13:33 25.07921 121.23843 120 ft 0 kts 320°
2026-05-04 13:50 25.07914 121.23850 120 ft 2 kts 320°
2026-05-04 13:50 25.07902 121.23861 120 ft 2 kts 320°
2026-05-04 13:50 25.07891 121.23872 120 ft 2 kts 320°
2026-05-04 13:51 25.07879 121.23882 120 ft 2 kts 320°
2026-05-04 13:51 25.07868 121.23892 120 ft 0 kts 320°
2026-05-04 13:51 25.07861 121.23899 120 ft 2 kts 314°
2026-05-04 13:51 25.07854 121.23908 120 ft 2 kts 296°
2026-05-04 13:52 25.07850 121.23946 120 ft 2 kts 253°
2026-05-04 13:52 25.07856 121.23961 120 ft 2 kts 235°
2026-05-04 13:52 25.07860 121.23968 120 ft 1 kts 228°
2026-05-04 13:53 25.07861 121.23969 120 ft 0 kts 229°
2026-05-04 13:55 25.07855 121.23962 120 ft 4 kts 229°
2026-05-04 13:56 25.07818 121.23914 120 ft 12 kts 229°
2026-05-04 13:56 25.07747 121.23824 120 ft 19 kts 229°
2026-05-04 13:56 25.07582 121.23701 120 ft 5 kts 140°
2026-05-04 13:57 25.07574 121.23709 120 ft 4 kts 139°
2026-05-04 13:57 25.07536 121.23744 120 ft 10 kts 139°
2026-05-04 13:58 25.07317 121.23598 120 ft 21 kts 229°
2026-05-04 13:58 25.07110 121.23334 120 ft 24 kts 229°
2026-05-04 13:58 25.06996 121.23189 120 ft 25 kts 229°
2026-05-04 13:59 25.06877 121.23038 120 ft 27 kts 229°
2026-05-04 13:59 25.06750 121.22877 120 ft 28 kts 229°
2026-05-04 13:59 25.06499 121.22557 120 ft 25 kts 229°
2026-05-04 14:00 25.06377 121.22402 120 ft 27 kts 229°
2026-05-04 14:00 25.06228 121.22361 120 ft 8 kts 139°
2026-05-04 14:00 25.06181 121.22413 120 ft 11 kts 120°
2026-05-04 14:01 25.06185 121.22481 120 ft 7 kts 51°
2026-05-04 14:01 25.06268 121.22585 120 ft 48 kts 49°
2026-05-04 14:01 25.07286 121.23867 207 ft 157 kts 50°
2026-05-04 14:02 25.08028 121.24759 811 ft 160 kts 51°
2026-05-04 14:02 25.08719 121.25642 1638 ft 152 kts 53°
2026-05-04 14:02 25.09389 121.26521 2347 ft 150 kts 54°
2026-05-04 14:02 25.10046 121.27402 2944 ft 152 kts 54°
2026-05-04 14:03 25.10726 121.28308 3443 ft 159 kts 53°
2026-05-04 14:03 25.11472 121.29303 3836 ft 174 kts 52°
2026-05-04 14:03 25.12490 121.30122 4181 ft 195 kts 15°
2026-05-04 14:03 25.13865 121.30004 4558 ft 212 kts 335°
2026-05-04 14:04 25.16143 121.27634 5383 ft 244 kts 312°
2026-05-04 14:04 25.17364 121.26233 5880 ft 260 kts 311°
2026-05-04 14:04 25.18641 121.24780 6507 ft 271 kts 311°
2026-05-04 14:05 25.21281 121.21798 8186 ft 276 kts 310°
2026-05-04 14:05 25.22624 121.20283 9012 ft 278 kts 310°
2026-05-04 14:05 25.23977 121.18761 9834 ft 279 kts 309°
2026-05-04 14:06 25.25333 121.17232 10576 ft 284 kts 309°
2026-05-04 14:06 25.26596 121.15524 10977 ft 294 kts 294°
2026-05-04 14:06 25.27209 121.13356 11407 ft 303 kts 274°
2026-05-04 14:06 25.27024 121.11001 11829 ft 315 kts 253°
2026-05-04 14:07 25.25997 121.08836 12201 ft 332 kts 234°
2026-05-04 14:07 25.24453 121.06885 12585 ft 347 kts 232°
2026-05-04 14:07 25.22832 121.04817 12940 ft 360 kts 232°
2026-05-04 14:07 25.21179 121.02723 13547 ft 366 kts 231°
2026-05-04 14:08 25.19417 121.00693 14189 ft 370 kts 228°
2026-05-04 14:08 25.17554 120.98686 14831 ft 373 kts 227°
2026-05-04 14:08 25.15692 120.96691 15441 ft 375 kts 227°
2026-05-04 14:08 25.13818 120.94684 16027 ft 377 kts 227°
2026-05-04 14:09 25.10047 120.90623 17131 ft 383 kts 227°
2026-05-04 14:09 25.08136 120.88557 17607 ft 386 kts 227°
2026-05-04 14:10 25.04291 120.84412 18657 ft 390 kts 227°
2026-05-04 14:10 25.02337 120.82306 19168 ft 392 kts 227°
2026-05-04 14:10 25.00397 120.80218 19613 ft 395 kts 227°
2026-05-04 14:10 24.98419 120.78088 20104 ft 397 kts 227°
2026-05-04 14:11 24.96436 120.75955 20572 ft 399 kts 227°
2026-05-04 14:11 24.92430 120.71649 21448 ft 405 kts 227°
2026-05-04 14:11 24.90419 120.69492 21870 ft 407 kts 227°
2026-05-04 14:12 24.88382 120.67312 22297 ft 410 kts 227°
2026-05-04 14:12 24.86324 120.65118 22750 ft 411 kts 227°
2026-05-04 14:12 24.82193 120.60706 23589 ft 415 kts 228°
2026-05-04 14:13 24.80102 120.58467 23997 ft 417 kts 228°
2026-05-04 14:13 24.78037 120.56258 24409 ft 419 kts 227°
2026-05-04 14:13 24.75929 120.54015 24783 ft 422 kts 226°
2026-05-04 14:13 24.73752 120.51879 25162 ft 425 kts 224°
2026-05-04 14:14 24.71420 120.49808 25542 ft 428 kts 221°
2026-05-04 14:14 24.66562 120.46011 26240 ft 433 kts 219°
2026-05-04 14:14 24.64073 120.44119 26593 ft 434 kts 219°
2026-05-04 14:15 24.59071 120.40324 27239 ft 438 kts 219°
2026-05-04 14:15 24.54043 120.36516 27810 ft 442 kts 219°
2026-05-04 14:16 24.48972 120.32669 28447 ft 444 kts 218°
2026-05-04 14:16 24.46435 120.30740 28717 ft 447 kts 218°
2026-05-04 14:17 24.41323 120.26798 29267 ft 450 kts 219°
2026-05-04 14:17 24.38762 120.24797 29536 ft 451 kts 219°
2026-05-04 14:17 24.33648 120.20816 30161 ft 452 kts 219°
2026-05-04 14:18 24.31081 120.18823 30578 ft 451 kts 219°
2026-05-04 14:18 24.25989 120.14875 31365 ft 448 kts 219°
2026-05-04 14:19 24.20933 120.10962 32127 ft 445 kts 220°
2026-05-04 14:19 24.18400 120.09003 32458 ft 444 kts 220°
2026-05-04 14:19 24.15896 120.07062 32790 ft 443 kts 220°
2026-05-04 14:19 24.13387 120.05121 33143 ft 442 kts 220°
2026-05-04 14:20 24.10868 120.03171 33494 ft 440 kts 221°
2026-05-04 14:20 24.08377 120.01245 33796 ft 440 kts 220°
2026-05-04 14:20 24.05880 119.99316 34044 ft 441 kts 220°
2026-05-04 14:21 24.00845 119.95434 34529 ft 441 kts 220°
2026-05-04 14:21 23.98344 119.93504 34753 ft 442 kts 220°
2026-05-04 14:21 23.95844 119.91575 34981 ft 442 kts 221°
2026-05-04 14:21 23.93320 119.89628 35241 ft 442 kts 220°
2026-05-04 14:22 23.90817 119.87701 35499 ft 441 kts 220°
2026-05-04 14:22 23.88286 119.85759 35755 ft 441 kts 220°
2026-05-04 14:22 23.85788 119.83852 35995 ft 440 kts 220°
2026-05-04 14:22 23.83280 119.81936 36243 ft 440 kts 220°
2026-05-04 14:23 23.78263 119.78094 36607 ft 442 kts 220°
2026-05-04 14:23 23.75734 119.76154 36746 ft 444 kts 220°
2026-05-04 14:23 23.73189 119.74202 36910 ft 445 kts 221°
2026-05-04 14:24 23.70674 119.72275 37055 ft 446 kts 220°
2026-05-04 14:24 23.68120 119.70297 37189 ft 446 kts 222°
2026-05-04 14:24 23.65695 119.68244 37315 ft 445 kts 225°
2026-05-04 14:24 23.63352 119.66034 37449 ft 443 kts 227°
2026-05-04 14:25 23.61127 119.63702 37596 ft 442 kts 230°
2026-05-04 14:25 23.57046 119.58692 37822 ft 441 kts 235°
2026-05-04 14:25 23.55209 119.56039 37906 ft 440 kts 238°
2026-05-04 14:26 23.51853 119.50458 38019 ft 442 kts 241°
2026-05-04 14:26 23.48577 119.44824 38031 ft 443 kts 241°
2026-05-04 14:27 23.45292 119.39175 38037 ft 443 kts 241°
2026-05-04 14:27 23.41987 119.33490 38040 ft 443 kts 240°
2026-05-04 14:28 23.38703 119.27820 38034 ft 443 kts 240°
2026-05-04 14:28 23.35421 119.22170 38039 ft 444 kts 240°
2026-05-04 14:29 23.28806 119.10822 38031 ft 445 kts 240°
2026-05-04 14:30 23.25492 119.05157 38040 ft 446 kts 240°
2026-05-04 14:31 23.20504 118.96637 38037 ft 446 kts 240°
2026-05-04 14:32 23.13832 118.85261 38038 ft 446 kts 240°
2026-05-04 14:32 23.10511 118.79608 38041 ft 447 kts 240°
2026-05-04 14:33 23.07149 118.73891 38037 ft 447 kts 240°
2026-05-04 14:33 23.03808 118.68218 38034 ft 447 kts 240°
2026-05-04 14:34 23.00458 118.62538 38039 ft 447 kts 240°
2026-05-04 14:34 22.97119 118.56886 38039 ft 447 kts 240°
2026-05-04 14:35 22.93759 118.51208 38040 ft 447 kts 240°
2026-05-04 14:35 22.90391 118.45536 38045 ft 448 kts 240°
2026-05-04 14:36 22.87007 118.39887 38048 ft 448 kts 240°
2026-05-04 14:36 22.83614 118.34233 38044 ft 449 kts 240°
2026-05-04 14:37 22.80218 118.28526 38044 ft 449 kts 240°
2026-05-04 14:37 22.76837 118.22855 38049 ft 449 kts 240°
2026-05-04 14:38 22.73455 118.17191 38040 ft 449 kts 240°
2026-05-04 14:38 22.70075 118.11547 38044 ft 448 kts 240°
2026-05-04 14:39 22.66689 118.05899 38047 ft 449 kts 240°
2026-05-04 14:39 22.63300 118.00248 38047 ft 449 kts 240°
2026-05-04 14:40 22.58215 117.91748 38051 ft 449 kts 240°
2026-05-04 14:40 22.54850 117.86078 38048 ft 449 kts 240°
2026-05-04 14:41 22.51471 117.80394 38050 ft 449 kts 240°
2026-05-04 14:42 22.44727 117.69069 38052 ft 449 kts 240°
2026-05-04 14:42 22.41342 117.63397 38046 ft 449 kts 240°
2026-05-04 14:43 22.38078 117.57629 38045 ft 448 kts 245°
2026-05-04 14:43 22.35599 117.51534 38044 ft 446 kts 252°
2026-05-04 14:44 22.33963 117.45104 38040 ft 444 kts 260°
2026-05-04 14:44 22.33214 117.38507 38045 ft 445 kts 267°
2026-05-04 14:45 22.33055 117.31846 38042 ft 445 kts 268°
2026-05-04 14:45 22.32930 117.25166 38042 ft 445 kts 268°
2026-05-04 14:46 22.32804 117.18494 38044 ft 445 kts 268°
2026-05-04 14:46 22.32677 117.11847 38041 ft 445 kts 268°
2026-05-04 14:47 22.32546 117.05152 38043 ft 445 kts 268°
2026-05-04 14:47 22.32411 116.98505 38043 ft 445 kts 269°
2026-05-04 14:48 22.32277 116.91833 38042 ft 445 kts 269°
2026-05-04 14:48 22.32139 116.85209 38044 ft 445 kts 269°
2026-05-04 14:49 22.31997 116.78487 38042 ft 445 kts 269°
2026-05-04 14:49 22.31854 116.71846 38047 ft 445 kts 268°
2026-05-04 14:50 22.31706 116.65185 38047 ft 445 kts 269°
2026-05-04 14:50 22.31556 116.58504 38051 ft 445 kts 269°
2026-05-04 14:51 22.31404 116.51873 38047 ft 445 kts 269°
2026-05-04 14:51 22.31250 116.45207 37855 ft 446 kts 269°
2026-05-04 14:52 22.31172 116.41869 37399 ft 443 kts 269°
2026-05-04 14:52 22.31094 116.38568 36839 ft 439 kts 268°
2026-05-04 14:52 22.31016 116.35317 36250 ft 437 kts 268°
2026-05-04 14:52 22.30937 116.32046 35579 ft 436 kts 268°
2026-05-04 14:53 22.30857 116.28783 34926 ft 435 kts 268°
2026-05-04 14:53 22.30778 116.25573 34278 ft 435 kts 268°
2026-05-04 14:53 22.30697 116.22268 33591 ft 435 kts 268°
2026-05-04 14:53 22.30616 116.19025 32915 ft 435 kts 267°
2026-05-04 14:54 22.30535 116.15807 32260 ft 435 kts 267°
2026-05-04 14:54 22.30452 116.12553 31581 ft 435 kts 267°
2026-05-04 14:54 22.30369 116.09296 30853 ft 436 kts 267°
2026-05-04 14:54 22.30284 116.06035 30062 ft 438 kts 267°
2026-05-04 14:55 22.30196 116.02711 29278 ft 439 kts 266°
2026-05-04 14:55 22.30111 115.99440 28714 ft 437 kts 266°
2026-05-04 14:55 22.30023 115.96188 28244 ft 432 kts 266°
2026-05-04 14:55 22.29933 115.92960 27657 ft 431 kts 266°
2026-05-04 14:56 22.29843 115.89740 27121 ft 428 kts 266°
2026-05-04 14:56 22.29753 115.86540 26526 ft 427 kts 267°
2026-05-04 14:56 22.29666 115.83379 25968 ft 424 kts 267°
2026-05-04 14:56 22.29582 115.80223 25467 ft 421 kts 267°
2026-05-04 14:57 22.29499 115.77088 24968 ft 418 kts 267°
2026-05-04 14:57 22.29417 115.73968 24481 ft 414 kts 268°
2026-05-04 14:57 22.29335 115.70885 24001 ft 411 kts 268°
2026-05-04 14:57 22.29255 115.67804 23539 ft 407 kts 268°
2026-05-04 14:58 22.29177 115.64796 23080 ft 404 kts 268°
2026-05-04 14:58 22.29098 115.61768 22613 ft 401 kts 268°
2026-05-04 14:58 22.29018 115.58791 22165 ft 397 kts 268°
2026-05-04 14:58 22.28937 115.55846 21716 ft 394 kts 268°
2026-05-04 14:59 22.28856 115.52915 21262 ft 391 kts 268°
2026-05-04 14:59 22.28775 115.49998 20808 ft 389 kts 268°
2026-05-04 14:59 22.28610 115.44199 19889 ft 384 kts 268°
2026-05-04 15:00 22.28527 115.41361 19437 ft 382 kts 268°
2026-05-04 15:00 22.28443 115.38491 18990 ft 380 kts 268°
2026-05-04 15:00 22.28359 115.35643 18540 ft 378 kts 268°
2026-05-04 15:01 22.28196 115.30008 17648 ft 375 kts 268°
2026-05-04 15:01 22.28116 115.27238 17221 ft 373 kts 268°
2026-05-04 15:01 22.28032 115.24462 16793 ft 371 kts 268°
2026-05-04 15:01 22.27947 115.21690 16361 ft 369 kts 268°
2026-05-04 15:02 22.27862 115.18914 15927 ft 367 kts 267°
2026-05-04 15:02 22.27777 115.16186 15503 ft 365 kts 267°
2026-05-04 15:02 22.27693 115.13485 15084 ft 362 kts 268°
2026-05-04 15:02 22.27607 115.10789 14674 ft 359 kts 268°
2026-05-04 15:03 22.27522 115.08102 14259 ft 357 kts 267°
2026-05-04 15:03 22.27435 115.05430 13845 ft 354 kts 268°
2026-05-04 15:03 22.27350 115.02797 13428 ft 351 kts 267°
2026-05-04 15:03 22.27264 115.00194 13002 ft 348 kts 267°
2026-05-04 15:04 22.27178 114.97582 12590 ft 346 kts 267°
2026-05-04 15:04 22.27094 114.94996 12169 ft 344 kts 267°
2026-05-04 15:04 22.27010 114.92432 11742 ft 342 kts 267°
2026-05-04 15:04 22.26927 114.89902 11494 ft 332 kts 267°
2026-05-04 15:05 22.26847 114.87469 11385 ft 319 kts 267°
2026-05-04 15:05 22.26769 114.85111 11266 ft 307 kts 267°
2026-05-04 15:05 22.26695 114.82872 11166 ft 297 kts 267°
2026-05-04 15:05 22.26614 114.80642 11080 ft 296 kts 264°
2026-05-04 15:06 22.26138 114.78460 11022 ft 306 kts 247°
2026-05-04 15:06 22.24983 114.76523 10749 ft 307 kts 229°
2026-05-04 15:06 22.23473 114.74930 10516 ft 301 kts 225°
2026-05-04 15:07 22.20497 114.71906 10037 ft 288 kts 225°
2026-05-04 15:07 22.19035 114.70415 9789 ft 283 kts 225°
2026-05-04 15:07 22.17630 114.68977 9552 ft 277 kts 225°
2026-05-04 15:07 22.16249 114.67562 9314 ft 273 kts 225°
2026-05-04 15:08 22.14870 114.66148 9072 ft 271 kts 225°
2026-05-04 15:08 22.13493 114.64736 8829 ft 272 kts 225°
2026-05-04 15:08 22.12124 114.63332 8585 ft 272 kts 225°
2026-05-04 15:08 22.10757 114.61931 8345 ft 271 kts 225°
2026-05-04 15:09 22.09390 114.60529 8123 ft 270 kts 225°
2026-05-04 15:09 22.08022 114.59127 8005 ft 271 kts 225°
2026-05-04 15:09 22.06661 114.57731 7888 ft 272 kts 225°
2026-05-04 15:10 22.03915 114.54917 7641 ft 270 kts 225°
2026-05-04 15:10 22.02644 114.53426 7522 ft 269 kts 235°
2026-05-04 15:10 22.00955 114.49834 7270 ft 270 kts 248°
2026-05-04 15:11 22.00251 114.47964 7153 ft 271 kts 248°
2026-05-04 15:11 21.99540 114.46069 7041 ft 270 kts 248°
2026-05-04 15:11 21.98837 114.44207 6940 ft 270 kts 248°
2026-05-04 15:11 21.98123 114.42325 6836 ft 270 kts 248°
2026-05-04 15:12 21.97414 114.40466 6740 ft 270 kts 248°
2026-05-04 15:12 21.96694 114.38585 6645 ft 270 kts 248°
2026-05-04 15:12 21.95971 114.36699 6545 ft 270 kts 248°
2026-05-04 15:12 21.95254 114.34829 6446 ft 270 kts 247°
2026-05-04 15:13 21.94535 114.32946 6351 ft 270 kts 248°
2026-05-04 15:13 21.93827 114.31092 6254 ft 270 kts 248°
2026-05-04 15:13 21.93108 114.29213 6156 ft 271 kts 247°
2026-05-04 15:13 21.92386 114.27332 6058 ft 271 kts 247°
2026-05-04 15:14 21.91669 114.25465 5961 ft 270 kts 247°
2026-05-04 15:14 21.90950 114.23595 5864 ft 271 kts 247°
2026-05-04 15:14 21.90226 114.21709 5765 ft 271 kts 247°
2026-05-04 15:14 21.89694 114.19772 5642 ft 272 kts 266°
2026-05-04 15:15 21.89973 114.17785 5552 ft 273 kts 292°
2026-05-04 15:15 21.90858 114.15962 5461 ft 276 kts 299°
2026-05-04 15:15 21.91820 114.14150 5365 ft 276 kts 299°
2026-05-04 15:16 21.93718 114.10564 5135 ft 276 kts 299°
2026-05-04 15:16 21.94668 114.08749 5015 ft 276 kts 299°
2026-05-04 15:16 21.96535 114.05151 4773 ft 276 kts 299°
2026-05-04 15:17 21.97479 114.03327 4649 ft 277 kts 299°
2026-05-04 15:17 21.99351 113.99701 4406 ft 277 kts 300°
2026-05-04 15:17 22.00294 113.97873 4284 ft 277 kts 300°
2026-05-04 15:18 22.01228 113.96062 4162 ft 277 kts 300°
2026-05-04 15:18 22.02164 113.94246 4044 ft 277 kts 300°
2026-05-04 15:18 22.03101 113.92428 3922 ft 277 kts 300°
2026-05-04 15:19 22.04960 113.88815 3677 ft 277 kts 300°
2026-05-04 15:19 22.05905 113.86977 3557 ft 278 kts 300°
2026-05-04 15:19 22.07772 113.83347 3309 ft 273 kts 300°
2026-05-04 15:20 22.08682 113.81576 3185 ft 265 kts 300°
2026-05-04 15:20 22.09554 113.79877 3087 ft 257 kts 300°
2026-05-04 15:20 22.10471 113.78247 2975 ft 248 kts 312°
2026-05-04 15:20 22.11732 113.77054 2871 ft 236 kts 333°
2026-05-04 15:21 22.13178 113.76276 2773 ft 227 kts 340°
2026-05-04 15:21 22.14590 113.75609 2678 ft 219 kts 341°
2026-05-04 15:21 22.17314 113.74317 2467 ft 207 kts 340°
2026-05-04 15:22 22.18615 113.73679 2364 ft 200 kts 340°
2026-05-04 15:22 22.19862 113.73061 2264 ft 194 kts 340°
2026-05-04 15:22 22.22318 113.71840 2072 ft 195 kts 342°
2026-05-04 15:23 22.23597 113.71583 1899 ft 182 kts 23°
2026-05-04 15:23 22.24614 113.72265 1835 ft 172 kts 46°
2026-05-04 15:23 22.25518 113.73155 1736 ft 174 kts 46°
2026-05-04 15:23 22.26413 113.74021 1639 ft 175 kts 46°
2026-05-04 15:24 22.28028 113.75931 1525 ft 171 kts 65°
2026-05-04 15:24 22.28967 113.78307 1497 ft 172 kts 72°
2026-05-04 15:25 22.29366 113.79522 1490 ft 168 kts 72°
2026-05-04 15:25 22.29730 113.80664 1463 ft 156 kts 73°
2026-05-04 15:25 22.30076 113.81750 1261 ft 150 kts 72°
2026-05-04 15:26 22.30732 113.83797 883 ft 140 kts 72°
2026-05-04 15:26 22.31057 113.84802 706 ft 140 kts 73°
2026-05-04 15:26 22.31693 113.86784 349 ft 139 kts 72°
2026-05-04 15:27 22.32008 113.87762 167 ft 138 kts 72°
2026-05-04 15:27 22.32550 113.89448 40 ft 75 kts 71°
2026-05-04 15:28 22.32699 113.90066 40 ft 29 kts 97°
2026-05-04 15:28 22.32668 113.90253 40 ft 25 kts 101°
2026-05-04 15:28 22.32724 113.90540 40 ft 20 kts 71°
2026-05-04 15:29 22.32769 113.90681 40 ft 20 kts 71°
2026-05-04 15:30 22.32974 113.91316 40 ft 24 kts 71°
2026-05-04 15:30 22.33140 113.91853 40 ft 25 kts 72°
2026-05-04 15:31 22.33176 113.92117 40 ft 11 kts 148°
2026-05-04 15:31 22.33081 113.92155 40 ft 17 kts 160°
2026-05-04 15:32 22.32660 113.92315 40 ft 23 kts 160°
2026-05-04 15:32 22.32332 113.92439 40 ft 26 kts 161°
2026-05-04 15:33 22.32269 113.92612 40 ft 15 kts 71°
2026-05-04 15:34 22.32088 113.92728 40 ft 19 kts 163°
2026-05-04 15:34 22.31944 113.92790 40 ft 22 kts 161°
2026-05-04 15:34 22.31689 113.92885 40 ft 23 kts 161°
2026-05-04 15:35 22.31526 113.92970 40 ft 8 kts 152°
2026-05-04 15:35 22.31490 113.92988 40 ft 8 kts 159°
2026-05-04 15:35 22.31466 113.92997 40 ft 7 kts 160°
2026-05-04 15:36 22.31453 113.93002 40 ft 0 kts 160°